"Pseudo-MPEC" for P21vY5j

Created 2022 Aug 23 13:22:42 UT using Find_Orb

Click here for an explanation of pseudo-MPECs

 
 Astrometry: 
     P21vY5j* C2022 08 09+4fr%0YgKSHx@F]Px/U8qH/vFKvo((OpHHu2[7i5/dM9\H/-p*pxF52
     P21vY5j  C2022 08 09/Gm7)w-QE\cZS!Iqj26=L,t;aE3k;2!Y8EVvU\:65o9a_LQ#R]WLF52
     P21vY5j  C2022 08 09yrq2dgD?)$1)41YjHsZ7Bsx\Astrometryy)_QgpX@hOR,pQKT/7F52
     P21vY5j  C2022 08 09]CHpgJjGbfu`Htja11^QTg]`8hflw#)u%ybPCdld_,23vtma+Q8_F52
     P21vY5j pC2022 08 10sPredacted;1@Ww:k9S,7=x!V+3j[a]CGi5`b?`M^*T#DEZ7x@(pL01
     P21vY5j pC2022 08 10?)L$qp92.6Ywt9EclickZf);J]rH(,_[MBQF%WJPN=c6TvgZp%+FL01
     P21vY5j KC2022 08 10cFJFrr)%1dRSoRYc.sDM#1aMkAXk*X;*+g30yQ,n?'J)5C/4KfE2L01
     P21vY5j pC2022 08 10:k-L\7+Rv6?c;%o0Dv4MfW]\IyI=jVj'Hu3DeR-hereeK[PrEtHYL01
     P21vY5j  C2022 08 10hj9h'hPZ2,$9TSLRY:]for^r4h=bexplanationkPY@WHGNjQb^fF52
     P21vY5j  C2022 08 10pl?vE7U9t9Ul'xcDi9b3t$5Hnf0K$vuKoqJ,'c@LpiF_(bo6@*^5F52

Station data:
(F52) Pan-STARRS 2, Haleakala  (N20.707382 W156.255910)  US/Hawaii.
   Observers J. Bulger, T. Dukes, T. Lowe, A. Schultz, M. Willman. Measurers
   K. Chambers, S. Chastel, T. de Boer, L. Denneau, J. Fairlamb, H.
   Flewelling, M. Huber, C.-C. Lin, E. Magnier, Y. Ramanjooloo, R. Wainscoat,
   R. Weryk. 1.8-m Ritchey-Chrétien + CCD.
(L01) Višnjan Observatory, Tičan  (N45.290897 E13.749300)  Croatia.
   Observers K. Korlević, D. Pujagic, V. Dobos. Measurers D. Pujagic, K.
   Korlević. 1.0-m f/2.9 reflector + CCD.

Orbital elements:  P21vY5j
   Perihelion 2022 Sep 14.86799 +/- 31.3 TT = 20:49:54 (JD 2459837.36799)
Epoch 2022 Aug 10.0 TT = JDT 2459801.5   Earth MOID: 0.3673   Ma: 0.0717
M 346.06168844 +/- 7                (J2000 ecliptic)          AutoNEOCP
n   0.38860033 +/- 0.0954           Peri.   43.15544 +/- 20
a   1.85980438 +/- 0.304            Node   316.55896 +/- 3.8
e   0.2657366 +/- 0.105             Incl.    5.12221 +/- 1.1
P   2.54/926.38d           H 20.5   G  0.15   U 11.2  SR
q 1.36558612 +/- 0.0609    Q 2.35402265 +/- 0.948
From 10 observations 2022 Aug. 9-10 (23.8 hr); mean residual 0".49
Residuals in arcseconds: 
220809 F52  .06+  .24-    220810 L01  1.4-  .05+    220810 F52  .14+  .44-    
220809 F52  .07+  .33-    220810 L01  .02+  .86+    220810 F52  .24+  .55-    
220809 F52  .22+  .34-    220810 L01  .06+  .47+    
220809 F52  .17+  .33-    220810 L01  .38+  .87+    

Ephemerides (geocentric):
Date (UTC) HH   RA             Dec           delta  r     elong  mag " sig PA
---- --------  ------------   ------------  ------ ------ -----  --- --------
2022 08 23 13  00 48 40.484   +12 49 53.85  .46820 1.3760 133.5 20.9 1167 138
2022 08 23 14  00 48 42.462   +12 50 41.53  .46803 1.3760 133.5 20.9 1175 138
2022 08 23 15  00 48 44.436   +12 51 29.20  .46787 1.3759 133.5 20.9 1182 138
2022 08 23 16  00 48 46.405   +12 52 16.86  .46770 1.3759 133.6 20.9 1190 138
2022 08 23 17  00 48 48.371   +12 53 04.49  .46753 1.3759 133.6 20.9 1197 138
2022 08 23 18  00 48 50.332   +12 53 52.12  .46736 1.3758 133.6 20.9 1205 138
2022 08 23 19  00 48 52.289   +12 54 39.73  .46719 1.3758 133.6 20.9 1213 138
2022 08 23 20  00 48 54.242   +12 55 27.32  .46702 1.3757 133.7 20.9 1220 138
2022 08 23 21  00 48 56.190   +12 56 14.90  .46685 1.3757 133.7 20.9 1228 138
2022 08 23 22  00 48 58.135   +12 57 02.46  .46668 1.3757 133.7 20.9 1235 138
2022 08 23 23  00 49 00.075   +12 57 50.01  .46651 1.3756 133.7 20.9 1243 138
2022 08 24 00  00 49 02.011   +12 58 37.54  .46634 1.3756 133.8 20.9 1251 138
2022 08 24 01  00 49 03.943   +12 59 25.05  .46618 1.3755 133.8 20.9 1259 138
2022 08 24 02  00 49 05.870   +13 00 12.56  .46601 1.3755 133.8 20.9 1266 138
2022 08 24 03  00 49 07.794   +13 01 00.04  .46584 1.3755 133.8 20.9 1274 138
2022 08 24 04  00 49 09.713   +13 01 47.51  .46567 1.3754 133.9 20.9 1282 138
2022 08 24 05  00 49 11.628   +13 02 34.97  .46551 1.3754 133.9 20.9 1290 138
2022 08 24 06  00 49 13.539   +13 03 22.40  .46534 1.3754 133.9 20.9 1297 138
2022 08 24 07  00 49 15.445   +13 04 09.83  .46517 1.3753 133.9 20.9 1305 138
2022 08 24 08  00 49 17.348   +13 04 57.23  .46500 1.3753 134.0 20.9 1313 138
2022 08 24 09  00 49 19.246   +13 05 44.63  .46484 1.3752 134.0 20.9 1321 138
2022 08 24 10  00 49 21.139   +13 06 32.00  .46467 1.3752 134.0 20.9 1329 138
2022 08 24 11  00 49 23.029   +13 07 19.36  .46450 1.3752 134.0 20.9 1337 138
2022 08 24 12  00 49 24.914   +13 08 06.71  .46434 1.3751 134.1 20.9 1345 138
2022 08 24 13  00 49 26.796   +13 08 54.03  .46417 1.3751 134.1 20.9 1353 138
2022 08 24 14  00 49 28.672   +13 09 41.35  .46400 1.3751 134.1 20.9 1361 138
2022 08 24 15  00 49 30.545   +13 10 28.64  .46384 1.3750 134.2 20.9 1369 138
2022 08 24 16  00 49 32.413   +13 11 15.92  .46367 1.3750 134.2 20.9 1377 138
2022 08 24 17  00 49 34.278   +13 12 03.19  .46351 1.3750 134.2 20.9 1385 138
2022 08 24 18  00 49 36.138   +13 12 50.43  .46334 1.3749 134.2 20.9 1394 138
2022 08 24 19  00 49 37.993   +13 13 37.67  .46318 1.3749 134.3 20.9 1402 138
2022 08 24 20  00 49 39.845   +13 14 24.88  .46301 1.3748 134.3 20.9 1410 138
2022 08 24 21  00 49 41.692   +13 15 12.08  .46285 1.3748 134.3 20.9 1418 138
2022 08 24 22  00 49 43.534   +13 15 59.26  .46268 1.3748 134.3 20.9 1426 138
2022 08 24 23  00 49 45.373   +13 16 46.43  .46252 1.3747 134.4 20.9 1435 138
2022 08 25 00  00 49 47.207   +13 17 33.58  .46235 1.3747 134.4 20.9 1443 138
2022 08 25 01  00 49 49.037   +13 18 20.71  .46219 1.3747 134.4 20.9 1451 138
2022 08 25 02  00 49 50.863   +13 19 07.83  .46202 1.3746 134.4 20.9 1460 138
2022 08 25 03  00 49 52.685   +13 19 54.93  .46186 1.3746 134.5 20.9 1468 138
2022 08 25 04  00 49 54.502   +13 20 42.01  .46169 1.3746 134.5 20.9 1476 138
2022 08 25 05  00 49 56.315   +13 21 29.08  .46153 1.3745 134.5 20.9 1485 138
2022 08 25 06  00 49 58.123   +13 22 16.13  .46137 1.3745 134.6 20.9 1493 138
2022 08 25 07  00 49 59.928   +13 23 03.16  .46120 1.3744 134.6 20.9 1502 138
2022 08 25 08  00 50 01.728   +13 23 50.18  .46104 1.3744 134.6 20.9 1510 138
2022 08 25 09  00 50 03.524   +13 24 37.18  .46088 1.3744 134.6 20.9 1519 138
2022 08 25 10  00 50 05.315   +13 25 24.16  .46071 1.3743 134.7 20.9 1527 138
2022 08 25 11  00 50 07.102   +13 26 11.13  .46055 1.3743 134.7 20.9 1536 138
2022 08 25 12  00 50 08.885   +13 26 58.07  .46039 1.3743 134.7 20.9 1544 138